,,Stat6,,Stat2,,Stat8,,Stat9,,Stat10,,Wind1,,Wind1,
time,status,PA1M_AVG,status,PR1M_SUM,status,RH1M_AVG,status,SR1M_AVG,status,TA1M_AVG,status,W1dAve1m,status,W1sAve1m,
2006-12-02, 18:02:00,VALID,917.36,VALID,0,VALID,100,VALID,-0.0849042,VALID,19.0818,VALID,12,VALID,0.975195,
2006-12-02, 18:03:00,VALID,917.372,VALID,0,VALID,100,VALID,-0.0849042,VALID,19.0695,VALID,12,VALID,1.14771,
2006-12-02, 18:04:00,VALID,917.404,VALID,0,VALID,100,VALID,-0.0339617,VALID,19.0561,VALID,17,VALID,1.25457,
2006-12-02, 18:05:00,VALID,917.436,VALID,0,VALID,100,VALID,-0.0339617,VALID,19.0596,VALID,14,VALID,1.16181,
2006-12-02, 18:06:00,VALID,917.46,VALID,0,VALID,100,VALID,-0.0339617,VALID,19.0526,VALID,3,VALID,0.792039,
2006-12-02, 18:07:00,VALID,917.476,VALID,0,VALID,100,VALID,-0.0339617,VALID,19.0496,VALID,14,VALID,0.493278,
2006-12-02, 18:08:00,VALID,917.499,VALID,0,VALID,100,VALID,-0.0849042,VALID,19.0469,VALID,21,VALID,0.129002,
2006-12-02, 18:09:00,VALID,917.533,VALID,0,VALID,100,VALID,-0.0679233,VALID,19.0533,VALID,24,VALID,0.195313,
2006-12-02, 18:10:00,VALID,917.559,VALID,0,VALID,100,VALID,-0.0169808,VALID,19.0397,VALID,24,VALID,0.396984,
2006-12-02, 18:11:00,VALID,917.592,VALID,0,VALID,100,VALID,-0.0339617,VALID,19.0598,VALID,22,VALID,0.703506,
2006-12-02, 18:12:00,VALID,917.618,VALID,0,VALID,100,VALID,-0.0339617,VALID,19.0466,VALID,16,VALID,0.538564,
2006-12-02, 18:13:00,VALID,917.647,VALID,0,VALID,100,VALID,-0.0169808,VALID,19.0367,VALID,6,VALID,0.792352,
2006-12-02, 18:14:00,VALID,917.673,VALID,0,VALID,100,VALID,-0.0169808,VALID,19.0397,VALID,4,VALID,0.915551,
2006-12-02, 18:15:00,VALID,917.71,VALID,0,VALID,100,VALID,-0.0169808,VALID,19.0399,VALID,10,VALID,1.0545,
2006-12-02, 18:16:00,VALID,917.727,VALID,0,VALID,100,VALID,-0.0169808,VALID,19.0462,VALID,14,VALID,0.928199,
2006-12-02, 18:17:00,VALID,917.751,VALID,0,VALID,100,VALID,-0.0339617,VALID,19.0633,VALID,2,VALID,0.923399,
2006-12-02, 18:18:00,VALID,917.754,VALID,0,VALID,100,VALID,0,VALID,19.0625,VALID,15,VALID,0.965039,
2006-12-02, 18:19:00,VALID,917.772,VALID,0,VALID,100,VALID,-0.0169808,VALID,19.0697,VALID,20,VALID,0.723704,
2006-12-02, 18:20:00,VALID,917.777,VALID,0,VALID,100,VALID,-0.0339617,VALID,19.0623,VALID,22,VALID,0.823219,
2006-12-02, 18:21:00,VALID,917.792,VALID,0,VALID,100,VALID,-0.0169808,VALID,19.0683,VALID,18,VALID,0.722862,
2006-12-02, 18:22:00,VALID,917.815,VALID,0,VALID,100,VALID,-0.0679233,VALID,19.069,VALID,5,VALID,0.728561,
2006-12-02, 18:23:00,VALID,917.842,VALID,0,VALID,100,VALID,-0.0509425,VALID,19.069,VALID,7,VALID,1.02593,
2006-12-02, 18:24:00,VALID,917.862,VALID,0,VALID,100,VALID,-0.0339617,VALID,19.0625,VALID,5,VALID,0.788881,
2006-12-02, 18:25:00,VALID,917.895,VALID,0,VALID,100,VALID,-0.0509425,VALID,19.0824,VALID,322,VALID,0.633575,
2006-12-02, 18:26:00,VALID,917.916,VALID,0,VALID,100,VALID,-0.0849042,VALID,19.0888,VALID,338,VALID,0.84375,
2006-12-02, 18:27:00,VALID,917.942,VALID,0,VALID,100,VALID,-0.0169808,VALID,19.0953,VALID,338,VALID,0.840199,
2006-12-02, 18:28:00,VALID,917.955,VALID,0,VALID,100,VALID,-0.101885,VALID,19.0851,VALID,353,VALID,0.967797,
2006-12-02, 18:29:00,VALID,917.968,VALID,0,VALID,100,VALID,-0.0509425,VALID,19.0849,VALID,356,VALID,0.918786,
2006-12-02, 18:30:00,VALID,917.973,VALID,0,VALID,100,VALID,-0.0509425,VALID,19.0787,VALID,359,VALID,0.832961,
2006-12-02, 18:31:00,VALID,917.965,VALID,0,VALID,100,VALID,-0.0509425,VALID,19.0787,VALID,11,VALID,0.831055,
2006-12-02, 18:32:00,VALID,917.978,VALID,0,VALID,100,VALID,0.0339617,VALID,19.0916,VALID,9,VALID,0.742535,
2006-12-02, 18:33:00,VALID,917.994,VALID,0,VALID,100,VALID,0.0509425,VALID,19.0869,VALID,15,VALID,0.767671,
2006-12-02, 18:34:00,VALID,917.987,VALID,0,VALID,100,VALID,0.101885,VALID,19.0936,VALID,4,VALID,0.791548,
2006-12-02, 18:35:00,VALID,918.001,VALID,0,VALID,100,VALID,0.0509425,VALID,19.0807,VALID,358,VALID,0.980382,
2006-12-02, 18:36:00,VALID,918.009,VALID,0,VALID,100,VALID,0.0339617,VALID,19.0839,VALID,360,VALID,0.974864,
2006-12-02, 18:37:00,VALID,918.024,VALID,0,VALID,100,VALID,0.0679233,VALID,19.0934,VALID,353,VALID,0.661754,
2006-12-02, 18:38:00,VALID,918.031,VALID,0,VALID,100,VALID,0.0849042,VALID,19.1229,VALID,340,VALID,0.771484,
2006-12-02, 18:39:00,VALID,918.043,VALID,0,VALID,100,VALID,0.0679233,VALID,19.1254,VALID,329,VALID,0.79633,
2006-12-02, 18:40:00,VALID,918.056,VALID,0,VALID,100,VALID,0.101885,VALID,19.1487,VALID,302,VALID,0.863735,
2006-12-02, 18:41:00,VALID,918.065,VALID,0,VALID,100,VALID,0.0849042,VALID,19.1478,VALID,308,VALID,0.903587,
2006-12-02, 18:42:00,VALID,918.065,VALID,0,VALID,100,VALID,0.0509425,VALID,19.1455,VALID,317,VALID,0.911577,
2006-12-02, 18:43:00,VALID,918.092,VALID,0,VALID,100,VALID,0.0509425,VALID,19.1411,VALID,312,VALID,0.630022,
2006-12-02, 18:44:00,VALID,918.096,VALID,0,VALID,100,VALID,0.0849042,VALID,19.1448,VALID,337,VALID,0.586648,
2006-12-02, 18:45:00,VALID,918.106,VALID,0,VALID,100,VALID,0.0509425,VALID,19.1351,VALID,355,VALID,0.738917,
2006-12-02, 18:46:00,VALID,918.113,VALID,0,VALID,100,VALID,0.0849042,VALID,19.1192,VALID,2,VALID,0.511364,
2006-12-02, 18:47:00,VALID,918.129,VALID,0,VALID,100,VALID,0.0169808,VALID,19.1003,VALID,356,VALID,0.261347,
2006-12-02, 18:48:00,VALID,918.126,VALID,0,VALID,100,VALID,-0.0169808,VALID,19.1209,VALID,356,VALID,0.566319,
2006-12-02, 18:49:00,VALID,918.138,VALID,0,VALID,100,VALID,-0.0339617,VALID,19.1045,VALID,357,VALID,0.47168,
2006-12-02, 18:50:00,VALID,918.142,VALID,0,VALID,100,VALID,-0.0169808,VALID,19.0911,VALID,357,VALID,0.497275,
2006-12-02, 18:51:00,VALID,918.152,VALID,0,VALID,100,VALID,-0.0509425,VALID,19.1015,VALID,357,VALID,0.453658,
2006-12-02, 18:52:00,VALID,918.164,VALID,0,VALID,100,VALID,-0.0339617,VALID,19.1244,VALID,357,VALID,0.495313,
2006-12-02, 18:53:00,VALID,918.163,VALID,0,VALID,100,VALID,-0.0339617,VALID,19.1239,VALID,353,VALID,0.428735,
2006-12-02, 18:54:00,VALID,918.165,VALID,0,VALID,100,VALID,-0.0339617,VALID,19.1206,VALID,352,VALID,0.361806,
2006-12-02, 18:55:00,VALID,918.176,VALID,0,VALID,100,VALID,-0.0509425,VALID,19.1306,VALID,353,VALID,0.456473,
2006-12-02, 18:56:00,VALID,918.176,VALID,0,VALID,100,VALID,-0.0339617,VALID,19.1137,VALID,7,VALID,0.544695,
2006-12-02, 18:57:00,VALID,918.189,VALID,0,VALID,100,VALID,-0.0679233,VALID,19.1273,VALID,25,VALID,0.628162,
2006-12-02, 18:58:00,VALID,918.187,VALID,0,VALID,100,VALID,-0.0509425,VALID,19.1075,VALID,25,VALID,0.722556,
2006-12-02, 18:59:00,VALID,918.2,VALID,0.2,VALID,100,VALID,-0.0509425,VALID,19.0849,VALID,17,VALID,0.853646,
2006-12-02, 19:00:00,VALID,918.216,VALID,0,VALID,100,VALID,-0.0679233,VALID,19.0948,VALID,15,VALID,0.822115,
2006-12-02, 19:01:00,VALID,918.208,VALID,0.2,VALID,100,VALID,0,VALID,19.098,VALID,10,VALID,0.809495,
2006-12-02, 19:02:00,VALID,918.224,VALID,0,VALID,100,VALID,0,VALID,19.0946,VALID,359,VALID,0.816229,
2006-12-02, 19:03:00,VALID,918.24,VALID,0,VALID,100,VALID,0,VALID,19.0936,VALID,359,VALID,0.715278,
2006-12-02, 19:04:00,VALID,918.258,VALID,0.2,VALID,100,VALID,0,VALID,19.0941,VALID,358,VALID,0.714286,
2006-12-02, 19:05:00,VALID,918.278,VALID,0,VALID,100,VALID,0,VALID,19.0837,VALID,358,VALID,0.644817,
2006-12-02, 19:06:00,VALID,918.3,VALID,0.2,VALID,100,VALID,0.0509425,VALID,19.0807,VALID,359,VALID,0.731027,
2006-12-02, 19:07:00,VALID,918.315,VALID,0,VALID,100,VALID,0.0169808,VALID,19.0676,VALID,7,VALID,0.921494,
2006-12-02, 19:08:00,VALID,918.354,VALID,0.2,VALID,100,VALID,0,VALID,19.0613,VALID,6,VALID,1.05362,
2006-12-02, 19:09:00,VALID,918.361,VALID,0,VALID,100,VALID,0.0169808,VALID,19.0807,VALID,8,VALID,1.17147,
2006-12-02, 19:10:00,VALID,918.387,VALID,0.2,VALID,100,VALID,0.0169808,VALID,19.071,VALID,5,VALID,0.932165,
2006-12-02, 19:11:00,VALID,918.397,VALID,0,VALID,100,VALID,0.0339617,VALID,19.0902,VALID,12,VALID,0.454942,
2006-12-02, 19:12:00,VALID,918.393,VALID,0.2,VALID,100,VALID,0.0169808,VALID,19.0904,VALID,19,VALID,0.655878,
2006-12-02, 19:13:00,VALID,918.39,VALID,0,VALID,100,VALID,0.0169808,VALID,19.0809,VALID,23,VALID,0.502725,
2006-12-02, 19:14:00,VALID,918.395,VALID,0.2,VALID,100,VALID,0.0169808,VALID,19.0943,VALID,23,VALID,0.47934,
2006-12-02, 19:15:00,VALID,918.408,VALID,0.2,VALID,100,VALID,0,VALID,19.0837,VALID,23,VALID,0.557355,
2006-12-02, 19:16:00,VALID,918.416,VALID,0,VALID,100,VALID,0,VALID,19.0809,VALID,23,VALID,0.450521,
2006-12-02, 19:17:00,VALID,918.409,VALID,0,VALID,100,VALID,0.0169808,VALID,19.0872,VALID,18,VALID,0.529615,
2006-12-02, 19:18:00,VALID,918.427,VALID,0.2,VALID,100,VALID,0.0339617,VALID,19.0805,VALID,2,VALID,0.673328,
2006-12-02, 19:19:00,VALID,918.417,VALID,0,VALID,100,VALID,0.0169808,VALID,19.0775,VALID,15,VALID,0.543341,
2006-12-02, 19:20:00,VALID,918.415,VALID,0.2,VALID,100,VALID,0.0169808,VALID,19.0574,VALID,22,VALID,0.575,
2006-12-02, 19:21:00,VALID,918.424,VALID,0,VALID,100,VALID,0.0169808,VALID,19.0678,VALID,22,VALID,0.419444,
2006-12-02, 19:22:00,VALID,918.435,VALID,0.2,VALID,100,VALID,0.0509425,VALID,19.0805,VALID,22,VALID,0.608648,
2006-12-02, 19:23:00,VALID,918.452,VALID,0.2,VALID,100,VALID,0,VALID,19.0904,VALID,22,VALID,0.570117,
2006-12-02, 19:24:00,VALID,918.457,VALID,0,VALID,100,VALID,0,VALID,19.0966,VALID,14,VALID,0.973828,
2006-12-02, 19:25:00,VALID,918.481,VALID,0,VALID,100,VALID,0.0679233,VALID,19.1001,VALID,14,VALID,1.05291,
2006-12-02, 19:26:00,VALID,918.48,VALID,0.2,VALID,100,VALID,0.0169808,VALID,19.1035,VALID,14,VALID,1.10882,
2006-12-02, 19:27:00,VALID,918.492,VALID,0.2,VALID,100,VALID,0.0679233,VALID,19.0966,VALID,14,VALID,1.11955,
2006-12-02, 19:28:00,VALID,918.491,VALID,0,VALID,100,VALID,0.0339617,VALID,19.1065,VALID,20,VALID,0.867535,
2006-12-02, 19:29:00,VALID,918.482,VALID,0.2,VALID,100,VALID,0.0169808,VALID,19.0929,VALID,33,VALID,0.884201,
2006-12-02, 19:30:00,VALID,918.48,VALID,0,VALID,100,VALID,0,VALID,19.1095,VALID,30,VALID,0.944931,
2006-12-02, 19:31:00,VALID,918.492,VALID,0.2,VALID,100,VALID,0,VALID,19.0998,VALID,30,VALID,0.852834,
2006-12-02, 19:32:00,VALID,918.509,VALID,0,VALID,100,VALID,0.0339617,VALID,19.107,VALID,30,VALID,0.915365,
2006-12-02, 19:33:00,VALID,918.519,VALID,0,VALID,100,VALID,0,VALID,19.0839,VALID,31,VALID,0.80888,
2006-12-02, 19:34:00,VALID,918.534,VALID,0,VALID,100,VALID,0.0169808,VALID,19.0772,VALID,15,VALID,1.0787,
2006-12-02, 19:35:00,VALID,918.55,VALID,0.2,VALID,100,VALID,0.0679233,VALID,19.0643,VALID,24,VALID,1.16482,
2006-12-02, 19:36:00,VALID,918.566,VALID,0,VALID,100,VALID,0,VALID,19.0713,VALID,27,VALID,1.11458,
2006-12-02, 19:37:00,VALID,918.572,VALID,0,VALID,100,VALID,0,VALID,19.078,VALID,29,VALID,1.21548,
2006-12-02, 19:38:00,VALID,918.574,VALID,0.2,VALID,100,VALID,0.0169808,VALID,19.0676,VALID,35,VALID,1.55809,
2006-12-02, 19:39:00,VALID,918.582,VALID,0,VALID,100,VALID,0,VALID,19.0847,VALID,40,VALID,1.31696,
2006-12-02, 19:40:00,VALID,918.599,VALID,0,VALID,100,VALID,0,VALID,19.0807,VALID,37,VALID,1.35447,
2006-12-02, 19:41:00,VALID,918.607,VALID,0,VALID,100,VALID,0.0339617,VALID,19.0777,VALID,30,VALID,1.32148,
2006-12-02, 19:42:00,VALID,918.628,VALID,0,VALID,100,VALID,0,VALID,19.0611,VALID,29,VALID,1.2106,
2006-12-02, 19:43:00,VALID,918.631,VALID,0,VALID,100,VALID,0.0339617,VALID,19.0514,VALID,24,VALID,1.45422,
2006-12-02, 19:44:00,VALID,918.645,VALID,0,VALID,100,VALID,0.0169808,VALID,19.0514,VALID,17,VALID,1.09282,
2006-12-02, 19:45:00,VALID,918.651,VALID,0,VALID,100,VALID,0,VALID,19.0452,VALID,10,VALID,1.20185,
2006-12-02, 19:46:00,VALID,918.664,VALID,0,VALID,100,VALID,0.0339617,VALID,19.0457,VALID,6,VALID,1.35174,
2006-12-02, 19:47:00,VALID,918.682,VALID,0,VALID,100,VALID,-0.0509425,VALID,19.0328,VALID,13,VALID,1.33516,
2006-12-02, 19:48:00,VALID,918.708,VALID,0,VALID,100,VALID,-0.0679233,VALID,19.0367,VALID,8,VALID,1.22199,
2006-12-02, 19:49:00,VALID,918.706,VALID,0,VALID,100,VALID,-0.0849042,VALID,19.037,VALID,12,VALID,1.36914,
2006-12-02, 19:50:00,VALID,918.711,VALID,0,VALID,100,VALID,-0.101885,VALID,19.027,VALID,13,VALID,1.12863,
2006-12-02, 19:51:00,VALID,918.726,VALID,0,VALID,100,VALID,-0.101885,VALID,19.0176,VALID,5,VALID,1.14043,
2006-12-02, 19:52:00,VALID,918.747,VALID,0,VALID,100,VALID,-0.0509425,VALID,19.0107,VALID,11,VALID,1.05832,
2006-12-02, 19:53:00,VALID,918.75,VALID,0,VALID,100,VALID,-0.0849042,VALID,19.0109,VALID,18,VALID,0.928735,
2006-12-02, 19:54:00,VALID,918.754,VALID,0,VALID,100,VALID,-0.0849042,VALID,19.0144,VALID,12,VALID,0.823633,
2006-12-02, 19:55:00,VALID,918.779,VALID,0,VALID,100,VALID,-0.101885,VALID,19.0111,VALID,348,VALID,0.735119,
2006-12-02, 19:56:00,VALID,918.786,VALID,0,VALID,100,VALID,-0.101885,VALID,19.0114,VALID,353,VALID,0.872093,
2006-12-02, 19:57:00,VALID,918.804,VALID,0,VALID,100,VALID,-0.0849042,VALID,19.0111,VALID,353,VALID,0.942522,
2006-12-02, 19:58:00,VALID,918.796,VALID,0,VALID,100,VALID,-0.101885,VALID,19.0144,VALID,6,VALID,0.983445,
2006-12-02, 19:59:00,VALID,918.821,VALID,0,VALID,100,VALID,-0.101885,VALID,19.0176,VALID,2,VALID,0.931868,
2006-12-02, 20:00:00,VALID,918.818,VALID,0,VALID,100,VALID,-0.101885,VALID,19.0372,VALID,351,VALID,0.916061,
2006-12-02, 20:01:00,VALID,918.817,VALID,0,VALID,100,VALID,-0.101885,VALID,19.0464,VALID,3,VALID,0.622024,
2006-12-02, 20:02:00,VALID,918.826,VALID,0.2,VALID,100,VALID,-0.0509425,VALID,19.066,VALID,5,VALID,1.08098,
2006-12-02, 20:03:00,VALID,918.831,VALID,0,VALID,100,VALID,-0.0169808,VALID,19.0588,VALID,13,VALID,1.21912,
2006-12-02, 20:04:00,VALID,918.843,VALID,0,VALID,100,VALID,0,VALID,19.0787,VALID,17,VALID,1.16446,
2006-12-02, 20:05:00,VALID,918.84,VALID,0,VALID,100,VALID,0.0169808,VALID,19.0688,VALID,16,VALID,0.920455,
2006-12-02, 20:06:00,VALID,918.852,VALID,0,VALID,100,VALID,-0.0169808,VALID,19.0921,VALID,18,VALID,0.802379,
2006-12-02, 20:07:00,VALID,918.848,VALID,0,VALID,100,VALID,-0.0339617,VALID,19.0943,VALID,26,VALID,0.956321,
2006-12-02, 20:08:00,VALID,918.848,VALID,0,VALID,100,VALID,-0.0169808,VALID,19.0978,VALID,25,VALID,0.839935,
2006-12-02, 20:09:00,VALID,918.855,VALID,0,VALID,100,VALID,-0.0169808,VALID,19.1139,VALID,21,VALID,0.848837,
2006-12-02, 20:10:00,VALID,918.854,VALID,0,VALID,100,VALID,0,VALID,19.1202,VALID,26,VALID,1.14444,
2006-12-02, 20:11:00,VALID,918.864,VALID,0,VALID,100,VALID,0.0169808,VALID,19.1428,VALID,26,VALID,0.830669,
2006-12-02, 20:12:00,VALID,918.855,VALID,0,VALID,100,VALID,0.0169808,VALID,19.1527,VALID,26,VALID,1.19188,
2006-12-02, 20:13:00,VALID,918.853,VALID,0,VALID,100,VALID,0.0169808,VALID,19.1589,VALID,35,VALID,1.27325,
2006-12-02, 20:14:00,VALID,918.854,VALID,0,VALID,100,VALID,-0.0169808,VALID,19.1591,VALID,21,VALID,0.891319,
2006-12-02, 20:15:00,VALID,918.85,VALID,0,VALID,100,VALID,0,VALID,19.1718,VALID,36,VALID,0.87391,
2006-12-02, 20:16:00,VALID,918.85,VALID,0,VALID,100,VALID,0.0339617,VALID,19.185,VALID,29,VALID,0.924219,
2006-12-02, 20:17:00,VALID,918.847,VALID,0,VALID,100,VALID,0,VALID,19.1942,VALID,35,VALID,1.16188,
2006-12-02, 20:18:00,VALID,918.835,VALID,0,VALID,100,VALID,0,VALID,19.2041,VALID,38,VALID,0.999512,
2006-12-02, 20:19:00,VALID,918.838,VALID,0,VALID,100,VALID,-0.0169808,VALID,19.2172,VALID,34,VALID,0.922828,
2006-12-02, 20:20:00,VALID,918.825,VALID,0,VALID,100,VALID,0,VALID,19.2237,VALID,29,VALID,0.682106,
2006-12-02, 20:21:00,VALID,918.831,VALID,0,VALID,100,VALID,0,VALID,19.2299,VALID,29,VALID,0.550977,
2006-12-02, 20:22:00,VALID,918.826,VALID,0,VALID,100,VALID,0,VALID,19.2304,VALID,33,VALID,0.780705,
2006-12-02, 20:23:00,VALID,918.811,VALID,0,VALID,100,VALID,0,VALID,19.2331,VALID,33,VALID,0.792302,
2006-12-02, 20:24:00,VALID,918.807,VALID,0,VALID,100,VALID,0,VALID,19.2227,VALID,31,VALID,0.797433,
2006-12-02, 20:25:00,VALID,918.809,VALID,0,VALID,100,VALID,0,VALID,19.223,VALID,27,VALID,0.742551,
2006-12-02, 20:26:00,VALID,918.806,VALID,0,VALID,100,VALID,0.0169808,VALID,19.2327,VALID,35,VALID,0.82867,
2006-12-02, 20:27:00,VALID,918.808,VALID,0,VALID,100,VALID,0,VALID,19.2361,VALID,29,VALID,0.872024,
2006-12-02, 20:28:00,VALID,918.818,VALID,0,VALID,100,VALID,0.0169808,VALID,19.2391,VALID,9,VALID,0.615734,
2006-12-02, 20:29:00,VALID,918.815,VALID,0,VALID,100,VALID,0,VALID,19.249,VALID,13,VALID,0.856889,
2006-12-02, 20:30:00,VALID,918.813,VALID,0,VALID,100,VALID,0.0339617,VALID,19.2463,VALID,19,VALID,0.948289,
2006-12-02, 20:31:00,VALID,918.813,VALID,0,VALID,100,VALID,0,VALID,19.2426,VALID,21,VALID,0.921697,
2006-12-02, 20:32:00,VALID,918.817,VALID,0,VALID,100,VALID,-0.0169808,VALID,19.2528,VALID,21,VALID,0.984193,
2006-12-02, 20:33:00,VALID,918.811,VALID,0,VALID,100,VALID,0,VALID,19.256,VALID,23,VALID,0.809896,
2006-12-02, 20:34:00,VALID,918.824,VALID,0,VALID,100,VALID,0,VALID,19.2624,VALID,26,VALID,1.0503,
2006-12-02, 20:35:00,VALID,918.822,VALID,0,VALID,100,VALID,0,VALID,19.259,VALID,30,VALID,0.973323,
2006-12-02, 20:36:00,VALID,918.81,VALID,0,VALID,100,VALID,0.0509425,VALID,19.2687,VALID,30,VALID,0.959985,
2006-12-02, 20:37:00,VALID,918.822,VALID,0,VALID,100,VALID,0,VALID,19.2778,VALID,28,VALID,0.842448,
2006-12-02, 20:38:00,VALID,918.806,VALID,0,VALID,100,VALID,0,VALID,19.2977,VALID,28,VALID,1.02823,
2006-12-02, 20:39:00,VALID,918.797,VALID,0,VALID,100,VALID,0,VALID,19.2979,VALID,32,VALID,1.29514,
2006-12-02, 20:40:00,VALID,918.803,VALID,0,VALID,100,VALID,0,VALID,19.2945,VALID,33,VALID,1.08203,
2006-12-02, 20:41:00,VALID,918.792,VALID,0,VALID,100,VALID,-0.0169808,VALID,19.294,VALID,37,VALID,1.09837,
2006-12-02, 20:42:00,VALID,918.789,VALID,0,VALID,100,VALID,0,VALID,19.2942,VALID,33,VALID,0.866797,
2006-12-02, 20:43:00,VALID,918.763,VALID,0,VALID,100,VALID,0.0169808,VALID,19.3037,VALID,25,VALID,0.937305,
2006-12-02, 20:44:00,VALID,918.757,VALID,0,VALID,100,VALID,0,VALID,19.3037,VALID,27,VALID,0.829013,
2006-12-02, 20:45:00,VALID,918.746,VALID,0,VALID,100,VALID,0.0169808,VALID,19.3104,VALID,32,VALID,0.861421,
2006-12-02, 20:46:00,VALID,918.748,VALID,0,VALID,100,VALID,0.0169808,VALID,19.3265,VALID,47,VALID,0.628815,
2006-12-02, 20:47:00,VALID,918.744,VALID,0,VALID,100,VALID,0.0169808,VALID,19.3464,VALID,30,VALID,0.648438,
2006-12-02, 20:48:00,VALID,918.749,VALID,0,VALID,100,VALID,0.0169808,VALID,19.3494,VALID,16,VALID,0.713281,
2006-12-02, 20:49:00,VALID,918.755,VALID,0,VALID,100,VALID,0,VALID,19.3519,VALID,12,VALID,0.937089,
2006-12-02, 20:50:00,VALID,918.755,VALID,0,VALID,100,VALID,0.0339617,VALID,19.3752,VALID,17,VALID,0.964753,
2006-12-02, 20:51:00,VALID,918.765,VALID,0,VALID,100,VALID,0,VALID,19.3717,VALID,11,VALID,0.880469,
2006-12-02, 20:52:00,VALID,918.758,VALID,0,VALID,100,VALID,0,VALID,19.3849,VALID,32,VALID,0.817472,
2006-12-02, 20:53:00,VALID,918.758,VALID,0,VALID,100,VALID,0,VALID,19.3975,VALID,34,VALID,0.688281,
2006-12-02, 20:54:00,VALID,918.761,VALID,0,VALID,100,VALID,0,VALID,19.3975,VALID,39,VALID,0.596591,
2006-12-02, 20:55:00,VALID,918.76,VALID,0,VALID,100,VALID,0,VALID,19.4142,VALID,48,VALID,0.376999,
2006-12-02, 20:56:00,VALID,918.759,VALID,0,VALID,100,VALID,0,VALID,19.4201,VALID,49,VALID,0.475654,
2006-12-02, 20:57:00,VALID,918.762,VALID,0,VALID,100,VALID,0,VALID,19.4229,VALID,47,VALID,0.558222,
2006-12-02, 20:58:00,VALID,918.774,VALID,0,VALID,100,VALID,0.0169808,VALID,19.4393,VALID,44,VALID,0.60556,
2006-12-02, 20:59:00,VALID,918.793,VALID,0,VALID,100,VALID,0.0339617,VALID,19.4393,VALID,40,VALID,0.59282,
2006-12-02, 21:00:00,VALID,918.788,VALID,0,VALID,100,VALID,0,VALID,19.433,VALID,42,VALID,0.397507,
2006-12-02, 21:01:00,VALID,918.804,VALID,0,VALID,100,VALID,0,VALID,19.4321,VALID,42,VALID,0.486378,
2006-12-02, 21:02:00,VALID,918.809,VALID,0,VALID,100,VALID,0.0339617,VALID,19.4393,VALID,43,VALID,0.516959,
2006-12-02, 21:03:00,VALID,918.816,VALID,0,VALID,100,VALID,-0.0169808,VALID,19.4321,VALID,40,VALID,0.694949,
2006-12-02, 21:04:00,VALID,918.816,VALID,0,VALID,100,VALID,0,VALID,19.4221,VALID,42,VALID,0.653023,
2006-12-02, 21:05:00,VALID,918.81,VALID,0,VALID,100,VALID,-0.0169808,VALID,19.4417,VALID,49,VALID,0.56715,
2006-12-02, 21:06:00,VALID,918.812,VALID,0,VALID,100,VALID,-0.0169808,VALID,19.4457,VALID,69,VALID,0.442073,
2006-12-02, 21:07:00,VALID,918.797,VALID,0,VALID,100,VALID,0,VALID,19.4484,VALID,51,VALID,0.487165,
2006-12-02, 21:08:00,VALID,918.797,VALID,0,VALID,100,VALID,0,VALID,19.4355,VALID,58,VALID,0.60074,
2006-12-02, 21:09:00,VALID,918.804,VALID,0,VALID,100,VALID,-0.0169808,VALID,19.4291,VALID,45,VALID,0.616146,
2006-12-02, 21:10:00,VALID,918.797,VALID,0,VALID,100,VALID,0.0169808,VALID,19.4288,VALID,39,VALID,0.765092,
2006-12-02, 21:11:00,VALID,918.797,VALID,0,VALID,100,VALID,-0.0169808,VALID,19.4127,VALID,45,VALID,0.678013,
2006-12-02, 21:12:00,VALID,918.795,VALID,0,VALID,100,VALID,0,VALID,19.4323,VALID,43,VALID,0.695694,
2006-12-02, 21:13:00,VALID,918.794,VALID,0,VALID,100,VALID,0,VALID,19.4388,VALID,349,VALID,0.391768,
2006-12-02, 21:14:00,VALID,918.78,VALID,0,VALID,100,VALID,0,VALID,19.4355,VALID,29,VALID,0.590588,
2006-12-02, 21:15:00,VALID,918.785,VALID,0,VALID,100,VALID,0.0169808,VALID,19.4256,VALID,42,VALID,0.472752,
2006-12-02, 21:16:00,VALID,918.791,VALID,0,VALID,100,VALID,0.0169808,VALID,19.4256,VALID,48,VALID,0.143864,
2006-12-02, 21:17:00,VALID,918.785,VALID,0,VALID,100,VALID,-0.0169808,VALID,19.4263,VALID,54,VALID,0.418899,
2006-12-02, 21:18:00,VALID,918.786,VALID,0,VALID,100,VALID,-0.101885,VALID,19.4236,VALID,60,VALID,0.290039,
2006-12-02, 21:19:00,VALID,918.772,VALID,0,VALID,100,VALID,-0.0849042,VALID,19.4201,VALID,60,VALID,0.405523,
2006-12-02, 21:20:00,VALID,918.783,VALID,0,VALID,100,VALID,-0.0849042,VALID,19.4142,VALID,60,VALID,0.55907,
2006-12-02, 21:21:00,VALID,918.78,VALID,0,VALID,100,VALID,-0.101885,VALID,19.4042,VALID,60,VALID,0.252907,
2006-12-02, 21:22:00,VALID,918.769,VALID,0,VALID,100,VALID,-0.101885,VALID,19.4045,VALID,63,VALID,0.59593,
2006-12-02, 21:23:00,VALID,918.773,VALID,0,VALID,100,VALID,-0.101885,VALID,19.4015,VALID,45,VALID,0.595022,
2006-12-02, 21:24:00,VALID,918.771,VALID,0,VALID,100,VALID,-0.0849042,VALID,19.3722,VALID,36,VALID,0.254464,
2006-12-02, 21:25:00,VALID,918.77,VALID,0,VALID,100,VALID,-0.101885,VALID,19.3816,VALID,27,VALID,0.490552,
2006-12-02, 21:26:00,VALID,918.76,VALID,0,VALID,100,VALID,-0.0849042,VALID,19.3881,VALID,43,VALID,0.314174,
2006-12-02, 21:27:00,VALID,918.755,VALID,0.2,VALID,100,VALID,-0.101885,VALID,19.3978,VALID,58,VALID,0.280048,
2006-12-02, 21:28:00,VALID,918.75,VALID,0,VALID,100,VALID,-0.0849042,VALID,19.3851,VALID,72,VALID,0.221701,
2006-12-02, 21:29:00,VALID,918.756,VALID,0,VALID,100,VALID,-0.101885,VALID,19.3891,VALID,72,VALID,0.131037,
2006-12-02, 21:30:00,VALID,918.762,VALID,0,VALID,100,VALID,-0.0509425,VALID,19.3786,VALID,72,VALID,0.323038,
2006-12-02, 21:31:00,VALID,918.748,VALID,0,VALID,100,VALID,-0.101885,VALID,19.3888,VALID,72,VALID,0.0572311,
2006-12-02, 21:32:00,VALID,918.762,VALID,0,VALID,100,VALID,-0.0509425,VALID,19.3878,VALID,72,VALID,0.0557776,
2006-12-02, 21:33:00,VALID,918.773,VALID,0,VALID,100,VALID,-0.0169808,VALID,19.3871,VALID,72,VALID,0,
2006-12-02, 21:34:00,VALID,918.757,VALID,0,VALID,100,VALID,-0.0169808,VALID,19.3769,VALID,72,VALID,0.0715843,
2006-12-02, 21:35:00,VALID,918.74,VALID,0,VALID,100,VALID,-0.0169808,VALID,19.374,VALID,72,VALID,0.217448,
2006-12-02, 21:36:00,VALID,918.737,VALID,0,VALID,100,VALID,0,VALID,19.3511,VALID,72,VALID,0.285823,
2006-12-02, 21:37:00,VALID,918.729,VALID,0,VALID,100,VALID,0.0169808,VALID,19.3315,VALID,119,VALID,0.431996,
2006-12-02, 21:38:00,VALID,918.721,VALID,0,VALID,100,VALID,0,VALID,19.3258,VALID,107,VALID,0.423781,
2006-12-02, 21:39:00,VALID,918.719,VALID,0.2,VALID,100,VALID,0.0169808,VALID,19.3124,VALID,85,VALID,0.496951,
2006-12-02, 21:40:00,VALID,918.705,VALID,0,VALID,100,VALID,0,VALID,19.2992,VALID,60,VALID,0.877826,
2006-12-02, 21:41:00,VALID,918.691,VALID,0,VALID,100,VALID,0.0339617,VALID,19.2803,VALID,71,VALID,0.685764,
2006-12-02, 21:42:00,VALID,918.684,VALID,0,VALID,100,VALID,0,VALID,19.2672,VALID,71,VALID,0.679688,
2006-12-02, 21:43:00,VALID,918.655,VALID,0,VALID,100,VALID,0.0339617,VALID,19.2511,VALID,70,VALID,0.678779,
2006-12-02, 21:44:00,VALID,918.639,VALID,0,VALID,100,VALID,0.0169808,VALID,19.2642,VALID,68,VALID,0.509266,